THOR ABLESTAR DEB, 245

Orbit data source: Space-Track

THOR ABLESTAR DEB, 245 is space debris in LEO originally from a launch on Thu, 29 Jun 1961 UTC launched from the Air Force Eastern Test Range (AFETR). Debris objects in space refer to the collection of defunct objects orbiting the Earth. Examples of debris include non-operational satellites, rocket bodies, and fragments generated from explosions, collisions, or faulty payload assembly.

Loading next visibility...
Identifier
245, 1961-015CA
Orbit
LEO
Country
Flag of USUS
Related business
Manufacturer
Unknown
Mission
Spacecraft
Bus & Motor
Unknown
Mass
Unknown
Launch date (UTC)
1961-06-29 (64 years ago)
Launch vehicle
Unknown
Launch site
Air Force Eastern Test Range (AFETR)
Object type
Payload
Rocket body
Debris
Shape & HBR
Unknown shape, 0.2 m
Radar Cross Section
Medium (>0.1 m² and <1 m²)

Expand to show TLE details & history
Last TLE update: 18 hours ago

TLE from 18 hours ago
0 THOR ABLESTAR DEB
1 00245U 61015CA  25291.23768659  .00000976  00000-0  51478-3 0  9999
2 00245  66.1025  87.0026 0052263 331.1635  28.6565 14.17708785293572
Epoch: 2025-10-18T05:42Z
TLE epoch observation values (Epoch: 2025-10-18T05:42:16.121Z)
Latitude
-0.00002°
Longitude
-25.53616°
Altitude
802.13 km
Speed
7.47 km/s
True Right ascension
05h 48m 00s
True Declination
0° 00' 00"
Sunlit
Object was in daylight at epoch
Visualization orbit readout
Latitude
Unknown
Longitude
Unknown
Altitude
Unknown
Speed
Unknown
Apparent Right ascension
Unknown
Apparent Declination
Unknown
Sunlit
N/A
Visualization observer readout
Local Sidereal Time
18:55:11
Azimuth
Unknown
Elevation
Unknown
Doppler factor
Unknown
Orbital elements
Apogee altitude
869.246 km
Perigee altitude
793.886 km
Semi-major axis
7,209.703 km
Eccentricity
0.00523
Inclination
66.1025°
RAAN
87.0026°
Arg. of periapsis
331.1635°
True anomaly
28.94536°
Mean anomaly
28.6565°
Eccentric anomaly
28.80076°
Mean motion
3.54542 °/min
Orbital period
101.54 mins
BSTAR
0.00051478

Documentation

Showing up to 5 results
|